QFA1505 YSSY-YMHB

Flight info

Callsign QFA1505
Flight time 1h 31m
Altitude 36000
Route MARUB7/34R WOL H20 MOTRA/N0375F200 W407 IPLET
Aircraft B738/M-SADE2E3FGHIRWZ/LB1

Departure

Time 2026-04-26 02:12
Airport Sydney Kingsford Smith International Airport (YSSY)

Arrival

Time 2026-04-26 03:43
Airport Hobart International Airport (YMHB)
Time Latitude Longitude Altitude Speed Heading
2026-04-26 01:40 -33.93147 151.17858 29 ft 0 kts 191°
2026-04-26 01:53 -33.93138 151.17860 29 ft 3 kts 192°
2026-04-26 01:53 -33.93117 151.17862 29 ft 3 kts 164°
2026-04-26 01:53 -33.93100 151.17857 29 ft 3 kts 181°
2026-04-26 01:53 -33.93082 151.17863 29 ft 3 kts 233°
2026-04-26 01:54 -33.93075 151.17885 29 ft 3 kts 274°
2026-04-26 01:54 -33.93075 151.17892 29 ft 0 kts 280°
2026-04-26 01:56 -33.93075 151.17890 29 ft 1 kts 280°
2026-04-26 01:57 -33.93069 151.17849 29 ft 9 kts 279°
2026-04-26 01:57 -33.93052 151.17755 29 ft 14 kts 290°
2026-04-26 01:57 -33.93013 151.17640 29 ft 16 kts 282°
2026-04-26 01:57 -33.93046 151.17538 29 ft 14 kts 207°
2026-04-26 01:58 -33.93141 151.17530 29 ft 15 kts 166°
2026-04-26 01:58 -33.93257 151.17560 29 ft 20 kts 168°
2026-04-26 01:58 -33.93417 151.17594 29 ft 25 kts 178°
2026-04-26 01:58 -33.93581 151.17610 29 ft 22 kts 169°
2026-04-26 01:59 -33.93698 151.17669 29 ft 17 kts 155°
2026-04-26 01:59 -33.93784 151.17697 29 ft 7 kts 167°
2026-04-26 01:59 -33.93788 151.17698 29 ft 0 kts 166°
2026-04-26 02:00 -33.93804 151.17704 29 ft 11 kts 158°
2026-04-26 02:00 -33.93942 151.17789 28 ft 32 kts 167°
2026-04-26 02:00 -33.94176 151.17850 29 ft 35 kts 168°
2026-04-26 02:01 -33.94404 151.17904 29 ft 32 kts 176°
2026-04-26 02:01 -33.94615 151.17905 29 ft 30 kts 167°
2026-04-26 02:01 -33.94811 151.17955 29 ft 28 kts 167°
2026-04-26 02:01 -33.94995 151.18004 29 ft 26 kts 167°
2026-04-26 02:02 -33.95096 151.18061 29 ft 14 kts 109°
2026-04-26 02:02 -33.95088 151.18172 29 ft 12 kts 78°
2026-04-26 02:02 -33.95069 151.18272 29 ft 12 kts 78°
2026-04-26 02:02 -33.95066 151.18292 29 ft 0 kts 78°
2026-04-26 02:03 -33.95066 151.18294 29 ft 1 kts 78°
2026-04-26 02:03 -33.95059 151.18329 29 ft 6 kts 77°
2026-04-26 02:04 -33.95054 151.18359 29 ft 1 kts 78°
2026-04-26 02:05 -33.95052 151.18368 29 ft 4 kts 78°
2026-04-26 02:05 -33.95039 151.18437 29 ft 10 kts 77°
2026-04-26 02:05 -33.95070 151.18504 29 ft 10 kts 151°
2026-04-26 02:06 -33.95137 151.18566 29 ft 16 kts 137°
2026-04-26 02:06 -33.95246 151.18679 29 ft 25 kts 148°
2026-04-26 02:06 -33.95432 151.18748 29 ft 31 kts 168°
2026-04-26 02:06 -33.95639 151.18804 29 ft 30 kts 167°
2026-04-26 02:07 -33.95839 151.18855 29 ft 28 kts 167°
2026-04-26 02:07 -33.96028 151.18904 29 ft 27 kts 167°
2026-04-26 02:07 -33.96204 151.18950 29 ft 25 kts 168°
2026-04-26 02:07 -33.96368 151.18992 29 ft 23 kts 168°
2026-04-26 02:08 -33.96524 151.19032 29 ft 23 kts 168°
2026-04-26 02:08 -33.96675 151.19071 29 ft 22 kts 171°
2026-04-26 02:08 -33.96823 151.19066 29 ft 21 kts 172°
2026-04-26 02:08 -33.96965 151.19101 29 ft 20 kts 167°
2026-04-26 02:09 -33.97084 151.19133 29 ft 9 kts 165°
2026-04-26 02:09 -33.97094 151.19138 29 ft 0 kts 158°
2026-04-26 02:09 -33.97118 151.19166 29 ft 12 kts 120°
2026-04-26 02:09 -33.97108 151.19298 26 ft 18 kts 76°
2026-04-26 02:10 -33.97090 151.19374 26 ft 1 kts 49°
2026-04-26 02:10 -33.97077 151.19376 27 ft 4 kts 355°
2026-04-26 02:10 -33.97071 151.19374 24 ft 0 kts 349°
2026-04-26 02:11 -33.97070 151.19374 24 ft 1 kts 349°
2026-04-26 02:11 -33.96883 151.19326 24 ft 63 kts 348°
2026-04-26 02:11 -33.96221 151.19154 30 ft 129 kts 348°
2026-04-26 02:12 -33.95184 151.18891 255 ft 163 kts 349°
2026-04-26 02:12 -33.94055 151.18675 1038 ft 167 kts
2026-04-26 02:12 -33.93041 151.19289 1828 ft 170 kts 53°
2026-04-26 02:12 -33.92732 151.20691 2579 ft 181 kts 89°
2026-04-26 02:13 -33.93074 151.22167 3395 ft 188 kts 113°
2026-04-26 02:13 -33.93665 151.23584 4185 ft 191 kts 110°
2026-04-26 02:13 -33.93859 151.25204 4666 ft 209 kts 84°
2026-04-26 02:13 -33.93772 151.27053 4874 ft 234 kts 86°
2026-04-26 02:14 -33.93715 151.29072 5299 ft 247 kts 86°
2026-04-26 02:14 -33.93656 151.31232 5597 ft 267 kts 87°
2026-04-26 02:14 -33.93593 151.33486 6323 ft 272 kts 87°
2026-04-26 02:14 -33.93529 151.35759 7228 ft 273 kts 88°
2026-04-26 02:15 -33.93463 151.38055 8055 ft 275 kts 88°
2026-04-26 02:15 -33.93397 151.40373 8861 ft 280 kts 88°
2026-04-26 02:15 -33.93328 151.42725 9689 ft 283 kts 88°
2026-04-26 02:15 -33.93258 151.45107 10485 ft 286 kts 88°
2026-04-26 02:16 -33.93186 151.47499 11127 ft 290 kts 88°
2026-04-26 02:16 -33.93296 151.49930 11741 ft 295 kts 106°
2026-04-26 02:16 -33.94303 151.52070 12429 ft 297 kts 134°
2026-04-26 02:16 -33.95973 151.53519 13102 ft 303 kts 156°
2026-04-26 02:17 -33.98102 151.54009 13304 ft 325 kts 184°
2026-04-26 02:17 -34.00328 151.53238 13498 ft 346 kts 208°
2026-04-26 02:17 -34.02299 151.51457 13769 ft 362 kts 224°
2026-04-26 02:17 -34.04049 151.49231 14326 ft 369 kts 228°
2026-04-26 02:18 -34.05744 151.46903 14962 ft 372 kts 229°
2026-04-26 02:18 -34.07421 151.44561 15584 ft 376 kts 229°
2026-04-26 02:18 -34.09151 151.42159 16221 ft 380 kts 228°
2026-04-26 02:18 -34.10905 151.39749 16819 ft 385 kts 228°
2026-04-26 02:19 -34.12690 151.37320 17454 ft 389 kts 227°
2026-04-26 02:19 -34.14502 151.34874 18074 ft 392 kts 227°
2026-04-26 02:19 -34.16336 151.32407 18664 ft 397 kts 227°
2026-04-26 02:19 -34.18194 151.29912 19142 ft 402 kts 227°
2026-04-26 02:20 -34.20076 151.27386 19645 ft 406 kts 227°
2026-04-26 02:20 -34.21966 151.24849 20226 ft 408 kts 227°
2026-04-26 02:20 -34.23874 151.22287 20772 ft 411 kts 227°
2026-04-26 02:20 -34.25795 151.19704 21266 ft 415 kts 227°
2026-04-26 02:21 -34.27734 151.17095 21783 ft 418 kts 227°
2026-04-26 02:21 -34.29685 151.14467 22276 ft 422 kts 228°
2026-04-26 02:21 -34.31626 151.11851 22772 ft 425 kts 228°
2026-04-26 02:21 -34.33605 151.09182 23268 ft 428 kts 228°
2026-04-26 02:22 -34.35600 151.06489 23697 ft 432 kts 228°
2026-04-26 02:22 -34.37616 151.03765 24117 ft 435 kts 228°
2026-04-26 02:22 -34.39668 151.00991 24528 ft 438 kts 228°
2026-04-26 02:22 -34.41704 150.98236 24945 ft 440 kts 228°
2026-04-26 02:23 -34.43746 150.95471 25379 ft 441 kts 228°
2026-04-26 02:23 -34.45797 150.92691 25770 ft 443 kts 228°
2026-04-26 02:23 -34.47855 150.89900 26148 ft 446 kts 228°
2026-04-26 02:23 -34.49928 150.87085 26572 ft 447 kts 229°
2026-04-26 02:24 -34.52004 150.84266 26975 ft 449 kts 229°
2026-04-26 02:24 -34.54088 150.81433 27342 ft 451 kts 229°
2026-04-26 02:24 -34.56281 150.78736 27689 ft 454 kts 218°
2026-04-26 02:24 -34.58988 150.76741 28050 ft 456 kts 208°
2026-04-26 02:25 -34.61801 150.74955 28449 ft 457 kts 208°
2026-04-26 02:25 -34.64616 150.73175 28773 ft 459 kts 208°
2026-04-26 02:25 -34.67446 150.71361 29105 ft 461 kts 208°
2026-04-26 02:25 -34.70280 150.69516 29439 ft 463 kts 209°
2026-04-26 02:26 -34.73122 150.67643 29787 ft 465 kts 209°
2026-04-26 02:26 -34.75964 150.65757 30124 ft 466 kts 209°
2026-04-26 02:26 -34.78805 150.63866 30489 ft 466 kts 209°
2026-04-26 02:26 -34.81640 150.61977 30894 ft 463 kts 209°
2026-04-26 02:27 -34.84425 150.60121 31338 ft 460 kts 209°
2026-04-26 02:27 -34.87208 150.58266 31760 ft 457 kts 209°
2026-04-26 02:27 -34.89992 150.56411 32109 ft 457 kts 210°
2026-04-26 02:27 -34.92813 150.54529 32432 ft 456 kts 209°
2026-04-26 02:28 -34.95675 150.52858 32789 ft 456 kts 201°
2026-04-26 02:28 -34.98668 150.51769 33201 ft 454 kts 195°
2026-04-26 02:28 -35.01727 150.50876 33612 ft 451 kts 194°
2026-04-26 02:28 -35.04782 150.50014 33948 ft 450 kts 194°
2026-04-26 02:29 -35.07836 150.49151 34239 ft 450 kts 194°
2026-04-26 02:29 -35.10877 150.48280 34513 ft 449 kts 194°
2026-04-26 02:29 -35.13958 150.47384 34770 ft 449 kts 194°
2026-04-26 02:29 -35.16960 150.46501 34991 ft 449 kts 194°
2026-04-26 02:30 -35.19995 150.45600 35222 ft 449 kts 195°
2026-04-26 02:30 -35.23025 150.44696 35446 ft 450 kts 195°
2026-04-26 02:30 -35.26023 150.43799 35669 ft 450 kts 195°
2026-04-26 02:30 -35.29058 150.42891 35892 ft 450 kts 195°
2026-04-26 02:31 -35.32107 150.41977 36076 ft 451 kts 195°
2026-04-26 02:31 -35.35160 150.41062 36230 ft 452 kts 195°
2026-04-26 02:31 -35.38227 150.40142 36219 ft 456 kts 195°
2026-04-26 02:32 -35.44383 150.38295 36220 ft 454 kts 195°
2026-04-26 02:32 -35.50476 150.36465 36218 ft 449 kts 195°
2026-04-26 02:33 -35.56530 150.34643 36233 ft 449 kts 194°
2026-04-26 02:33 -35.62600 150.32812 36228 ft 450 kts 195°
2026-04-26 02:34 -35.68682 150.30976 36222 ft 450 kts 195°
2026-04-26 02:34 -35.74777 150.29132 36221 ft 451 kts 195°
2026-04-26 02:35 -35.80871 150.27286 36225 ft 452 kts 195°
2026-04-26 02:35 -35.86984 150.25432 36224 ft 452 kts 195°
2026-04-26 02:36 -35.93100 150.23574 36224 ft 453 kts 195°
2026-04-26 02:36 -35.99220 150.21711 36223 ft 453 kts 195°
2026-04-26 02:37 -36.05350 150.19842 36225 ft 454 kts 195°
2026-04-26 02:37 -36.11479 150.17971 36223 ft 454 kts 195°
2026-04-26 02:38 -36.17597 150.16100 36228 ft 453 kts 195°
2026-04-26 02:38 -36.23735 150.14220 36221 ft 453 kts 195°
2026-04-26 02:39 -36.29893 150.12331 36223 ft 453 kts 195°
2026-04-26 02:39 -36.36010 150.10451 36218 ft 453 kts 195°
2026-04-26 02:40 -36.42114 150.08573 36222 ft 452 kts 195°
2026-04-26 02:40 -36.47188 150.07008 36223 ft 452 kts 195°
2026-04-26 02:41 -36.53295 150.05123 36218 ft 452 kts 195°
2026-04-26 02:41 -36.59396 150.03237 36220 ft 452 kts 195°
2026-04-26 02:42 -36.65490 150.01349 36217 ft 452 kts 195°
2026-04-26 02:42 -36.71590 149.99457 36218 ft 452 kts 195°
2026-04-26 02:43 -36.80747 149.96610 36218 ft 452 kts 195°
2026-04-26 02:43 -36.86854 149.94708 36222 ft 452 kts 195°
2026-04-26 02:44 -36.92964 149.92801 36216 ft 453 kts 195°
2026-04-26 02:44 -36.99076 149.90891 36219 ft 453 kts 195°
2026-04-26 02:45 -37.05197 149.88975 36214 ft 454 kts 195°
2026-04-26 02:45 -37.11309 149.87058 36218 ft 454 kts 195°
2026-04-26 02:46 -37.17461 149.85126 36214 ft 454 kts 195°
2026-04-26 02:46 -37.23577 149.83202 36211 ft 454 kts 195°
2026-04-26 02:47 -37.29650 149.81288 36214 ft 454 kts 195°
2026-04-26 02:47 -37.35818 149.79341 36211 ft 454 kts 195°
2026-04-26 02:48 -37.41944 149.77418 36207 ft 454 kts 195°
2026-04-26 02:48 -37.48062 149.75484 36208 ft 453 kts 195°
2026-04-26 02:49 -37.54175 149.73524 36209 ft 453 kts 196°
2026-04-26 02:49 -37.60287 149.71579 36200 ft 453 kts 196°
2026-04-26 02:50 -37.66363 149.69442 36209 ft 452 kts 198°
2026-04-26 02:50 -37.72402 149.67200 36207 ft 452 kts 198°
2026-04-26 02:51 -37.78447 149.64960 36208 ft 453 kts 198°
2026-04-26 02:51 -37.84495 149.62737 36210 ft 453 kts 198°
2026-04-26 02:52 -37.90550 149.60511 36202 ft 453 kts 198°
2026-04-26 02:52 -37.96609 149.58287 36204 ft 454 kts 198°
2026-04-26 02:53 -38.02680 149.56058 36211 ft 454 kts 198°
2026-04-26 02:53 -38.08753 149.53824 36209 ft 454 kts 198°
2026-04-26 02:54 -38.14825 149.51585 36207 ft 455 kts 198°
2026-04-26 02:54 -38.20894 149.49344 36212 ft 455 kts 198°
2026-04-26 02:55 -38.26969 149.47097 36200 ft 455 kts 198°
2026-04-26 02:55 -38.33055 149.44841 36203 ft 455 kts 198°
2026-04-26 02:56 -38.39093 149.42600 36206 ft 455 kts 198°
2026-04-26 02:56 -38.45174 149.40338 36199 ft 455 kts 198°
2026-04-26 02:57 -38.51245 149.38077 36199 ft 455 kts 198°
2026-04-26 02:57 -38.57322 149.35809 36199 ft 454 kts 198°
2026-04-26 02:58 -38.63396 149.33538 36199 ft 454 kts 198°
2026-04-26 02:58 -38.69447 149.31272 36199 ft 454 kts 198°
2026-04-26 02:59 -38.75494 149.29003 36205 ft 454 kts 198°
2026-04-26 02:59 -38.81512 149.26741 36199 ft 454 kts 198°
2026-04-26 03:00 -38.87570 149.24460 36196 ft 453 kts 198°
2026-04-26 03:00 -38.93625 149.22176 36204 ft 453 kts 199°
2026-04-26 03:01 -38.99644 149.19902 36199 ft 453 kts 199°
2026-04-26 03:01 -39.05693 149.17613 36195 ft 453 kts 199°
2026-04-26 03:02 -39.11722 149.15326 36204 ft 453 kts 199°
2026-04-26 03:02 -39.17807 149.13015 36198 ft 453 kts 199°
2026-04-26 03:03 -39.23854 149.10713 36199 ft 453 kts 199°
2026-04-26 03:03 -39.29896 149.08410 36189 ft 453 kts 199°
2026-04-26 03:04 -39.35931 149.06105 36191 ft 452 kts 199°
2026-04-26 03:04 -39.41970 149.03794 36204 ft 452 kts 199°
2026-04-26 03:05 -39.47945 149.01504 36201 ft 452 kts 199°
2026-04-26 03:05 -39.53989 148.99183 36189 ft 451 kts 199°
2026-04-26 03:06 -39.60004 148.96869 36194 ft 451 kts 199°
2026-04-26 03:06 -39.66004 148.94557 36200 ft 450 kts 199°
2026-04-26 03:07 -39.72005 148.92240 36191 ft 450 kts 199°
2026-04-26 03:07 -39.78004 148.89919 36191 ft 450 kts 199°
2026-04-26 03:08 -39.83960 148.87611 36185 ft 449 kts 199°
2026-04-26 03:08 -39.89988 148.85271 36182 ft 449 kts 199°
2026-04-26 03:09 -39.95963 148.82946 36180 ft 448 kts 199°
2026-04-26 03:09 -40.01902 148.80632 36193 ft 448 kts 200°
2026-04-26 03:10 -40.07913 148.78286 36184 ft 448 kts 200°
2026-04-26 03:10 -40.13865 148.75957 36182 ft 447 kts 200°
2026-04-26 03:11 -40.19834 148.73617 36183 ft 447 kts 200°
2026-04-26 03:11 -40.25754 148.71291 36176 ft 446 kts 200°
2026-04-26 03:12 -40.31734 148.68938 36175 ft 446 kts 200°
2026-04-26 03:12 -40.37672 148.66597 36171 ft 445 kts 200°
2026-04-26 03:13 -40.43602 148.64254 36169 ft 445 kts 200°
2026-04-26 03:13 -40.49535 148.61906 36178 ft 445 kts 200°
2026-04-26 03:14 -40.55450 148.59561 36169 ft 444 kts 200°
2026-04-26 03:14 -40.61379 148.57206 36163 ft 445 kts 200°
2026-04-26 03:15 -40.64357 148.56020 35677 ft 450 kts 200°
2026-04-26 03:15 -40.67301 148.54848 35338 ft 445 kts 200°
2026-04-26 03:15 -40.70230 148.53683 34889 ft 442 kts 200°
2026-04-26 03:15 -40.73147 148.52521 34483 ft 438 kts 200°
2026-04-26 03:16 -40.76032 148.51369 34063 ft 435 kts 200°
2026-04-26 03:16 -40.78932 148.50211 33597 ft 432 kts 200°
2026-04-26 03:16 -40.81803 148.49063 33164 ft 428 kts 200°
2026-04-26 03:16 -40.84642 148.47927 32746 ft 425 kts 200°
2026-04-26 03:17 -40.87433 148.46809 32353 ft 421 kts 200°
2026-04-26 03:17 -40.90256 148.45677 31954 ft 418 kts 200°
2026-04-26 03:17 -40.93036 148.44561 31559 ft 415 kts 200°
2026-04-26 03:17 -40.95793 148.43453 31178 ft 412 kts 200°
2026-04-26 03:18 -40.98530 148.42352 30786 ft 410 kts 201°
2026-04-26 03:18 -41.00316 148.41633 30551 ft 408 kts 201°
2026-04-26 03:18 -41.03938 148.40174 30000 ft 405 kts 201°
2026-04-26 03:18 -41.05722 148.39455 29708 ft 404 kts 201°
2026-04-26 03:19 -41.08394 148.38377 29299 ft 400 kts 201°
2026-04-26 03:19 -41.11048 148.37306 28896 ft 397 kts 201°
2026-04-26 03:19 -41.13681 148.36242 28516 ft 393 kts 201°
2026-04-26 03:19 -41.16323 148.35174 28113 ft 391 kts 201°
2026-04-26 03:20 -41.18900 148.34130 27738 ft 388 kts 201°
2026-04-26 03:20 -41.21474 148.33087 27347 ft 386 kts 201°
2026-04-26 03:20 -41.24023 148.32053 26971 ft 383 kts 201°
2026-04-26 03:20 -41.26531 148.31035 26598 ft 381 kts 201°
2026-04-26 03:21 -41.29089 148.29996 26215 ft 379 kts 201°
2026-04-26 03:21 -41.31602 148.28975 25846 ft 377 kts 201°
2026-04-26 03:21 -41.34102 148.27942 25481 ft 375 kts 203°
2026-04-26 03:21 -41.36558 148.26808 25118 ft 373 kts 205°
2026-04-26 03:22 -41.38991 148.25616 24751 ft 372 kts 205°
2026-04-26 03:22 -41.41410 148.24412 24372 ft 371 kts 205°
2026-04-26 03:22 -41.43823 148.23210 24004 ft 370 kts 205°
2026-04-26 03:22 -41.46240 148.22009 23601 ft 370 kts 205°
2026-04-26 03:23 -41.48616 148.20835 23198 ft 369 kts 205°
2026-04-26 03:23 -41.51052 148.19635 22795 ft 367 kts 205°
2026-04-26 03:23 -41.53445 148.18459 22421 ft 366 kts 206°
2026-04-26 03:23 -41.55830 148.17288 22052 ft 364 kts 206°
2026-04-26 03:24 -41.58175 148.16135 21680 ft 362 kts 206°
2026-04-26 03:24 -41.60551 148.14967 21319 ft 360 kts 206°
2026-04-26 03:24 -41.62912 148.13806 20962 ft 359 kts 206°
2026-04-26 03:24 -41.65239 148.12661 20606 ft 357 kts 206°
2026-04-26 03:25 -41.67580 148.11508 20243 ft 356 kts 206°
2026-04-26 03:25 -41.69896 148.10366 19899 ft 355 kts 206°
2026-04-26 03:25 -41.72204 148.09226 19546 ft 354 kts 206°
2026-04-26 03:25 -41.74515 148.08085 19178 ft 354 kts 206°
2026-04-26 03:26 -41.76821 148.06945 18830 ft 353 kts 206°
2026-04-26 03:26 -41.79123 148.05806 18458 ft 353 kts 206°
2026-04-26 03:26 -41.81428 148.04665 18038 ft 353 kts 206°
2026-04-26 03:26 -41.83719 148.03530 17677 ft 350 kts 206°
2026-04-26 03:27 -41.86006 148.02398 17321 ft 349 kts 206°
2026-04-26 03:27 -41.88258 148.01281 16966 ft 348 kts 207°
2026-04-26 03:27 -41.90522 148.00158 16607 ft 346 kts 206°
2026-04-26 03:27 -41.92770 147.99041 16267 ft 344 kts 206°
2026-04-26 03:28 -41.95015 147.97925 15912 ft 343 kts 206°
2026-04-26 03:28 -41.97246 147.96815 15570 ft 341 kts 206°
2026-04-26 03:28 -41.99464 147.95710 15238 ft 340 kts 206°
2026-04-26 03:28 -42.01679 147.94607 14879 ft 338 kts 206°
2026-04-26 03:29 -42.03883 147.93508 14537 ft 337 kts 206°
2026-04-26 03:29 -42.06073 147.92415 14193 ft 336 kts 206°
2026-04-26 03:29 -42.08255 147.91325 13858 ft 334 kts 206°
2026-04-26 03:29 -42.10432 147.90237 13479 ft 333 kts 206°
2026-04-26 03:30 -42.12594 147.89156 13103 ft 331 kts 206°
2026-04-26 03:30 -42.14734 147.88086 12766 ft 328 kts 206°
2026-04-26 03:30 -42.16874 147.87014 12421 ft 327 kts 206°
2026-04-26 03:30 -42.18995 147.85950 12091 ft 325 kts 206°
2026-04-26 03:31 -42.21102 147.84894 11748 ft 323 kts 206°
2026-04-26 03:31 -42.23201 147.83839 11414 ft 320 kts 206°
2026-04-26 03:31 -42.25279 147.82796 11086 ft 318 kts 206°
2026-04-26 03:31 -42.27348 147.81755 10749 ft 316 kts 206°
2026-04-26 03:32 -42.29399 147.80724 10458 ft 313 kts 206°
2026-04-26 03:32 -42.31413 147.79712 10272 ft 305 kts 207°
2026-04-26 03:32 -42.33375 147.78727 10153 ft 296 kts 207°
2026-04-26 03:32 -42.35308 147.77858 10013 ft 293 kts 198°
2026-04-26 03:33 -42.37302 147.77474 9911 ft 287 kts 192°
2026-04-26 03:33 -42.39316 147.77242 9540 ft 290 kts 191°
2026-04-26 03:33 -42.41327 147.77037 9203 ft 291 kts 192°
2026-04-26 03:33 -42.43342 147.76821 8912 ft 289 kts 192°
2026-04-26 03:34 -42.45341 147.76593 8622 ft 288 kts 192°
2026-04-26 03:34 -42.47333 147.76355 8340 ft 287 kts 193°
2026-04-26 03:34 -42.49320 147.76109 8045 ft 286 kts 193°
2026-04-26 03:34 -42.51297 147.75859 7749 ft 285 kts 193°
2026-04-26 03:35 -42.53270 147.75607 7458 ft 283 kts 193°
2026-04-26 03:35 -42.55228 147.75355 7182 ft 282 kts 193°
2026-04-26 03:35 -42.57171 147.75103 6898 ft 281 kts 193°
2026-04-26 03:35 -42.59110 147.74851 6635 ft 280 kts 194°
2026-04-26 03:36 -42.61052 147.74597 6357 ft 279 kts 191°
2026-04-26 03:36 -42.62977 147.74347 6058 ft 278 kts 192°
2026-04-26 03:36 -42.64907 147.74095 5785 ft 277 kts 192°
2026-04-26 03:36 -42.66804 147.73850 5636 ft 271 kts 193°
2026-04-26 03:37 -42.68656 147.73611 5486 ft 264 kts 192°
2026-04-26 03:37 -42.70480 147.73370 5214 ft 263 kts 192°
2026-04-26 03:37 -42.72281 147.73134 5092 ft 256 kts 192°
2026-04-26 03:37 -42.74036 147.72903 4939 ft 250 kts 192°
2026-04-26 03:38 -42.75731 147.72679 4675 ft 246 kts 192°
2026-04-26 03:38 -42.77385 147.72462 4370 ft 243 kts 192°
2026-04-26 03:38 -42.79064 147.72242 4058 ft 238 kts 192°
2026-04-26 03:38 -42.80685 147.72030 3808 ft 229 kts 193°
2026-04-26 03:39 -42.82100 147.71365 3495 ft 204 kts 220°
2026-04-26 03:39 -42.83218 147.70258 3279 ft 196 kts 220°
2026-04-26 03:39 -42.84312 147.69205 3056 ft 194 kts 221°
2026-04-26 03:39 -42.85420 147.68139 2787 ft 194 kts 221°
2026-04-26 03:40 -42.86503 147.67097 2536 ft 185 kts 220°
2026-04-26 03:40 -42.87478 147.66064 2298 ft 171 kts 230°
2026-04-26 03:40 -42.88190 147.64860 2083 ft 157 kts 244°
2026-04-26 03:40 -42.88659 147.63531 1943 ft 154 kts 255°
2026-04-26 03:41 -42.88905 147.62153 1698 ft 144 kts 266°
2026-04-26 03:41 -42.88940 147.60832 1514 ft 137 kts 275°
2026-04-26 03:41 -42.88791 147.59542 1345 ft 141 kts 285°
2026-04-26 03:41 -42.88448 147.58276 1162 ft 144 kts 296°
2026-04-26 03:42 -42.87928 147.57122 968 ft 145 kts 306°
2026-04-26 03:42 -42.87263 147.56102 757 ft 145 kts 315°
2026-04-26 03:42 -42.86548 147.55139 628 ft 143 kts 317°
2026-04-26 03:42 -42.85842 147.54199 406 ft 146 kts 317°
2026-04-26 03:43 -42.85124 147.53225 244 ft 147 kts 316°
2026-04-26 03:43 -42.84402 147.52241 40 ft 147 kts 318°
2026-04-26 03:43 -42.83736 147.51345 23 ft 122 kts 315°
2026-04-26 03:43 -42.83346 147.50813 21 ft 22 kts 313°
2026-04-26 03:44 -42.83326 147.50653 21 ft 17 kts 238°
2026-04-26 03:44 -42.83384 147.50572 21 ft 10 kts 215°
2026-04-26 03:44 -42.83445 147.50580 23 ft 9 kts 144°
2026-04-26 03:44 -42.83492 147.50643 21 ft 10 kts 135°
2026-04-26 03:45 -42.83543 147.50702 23 ft 9 kts 159°
2026-04-26 03:45 -42.83591 147.50670 22 ft 4 kts 217°
2026-04-26 03:45 -42.83595 147.50667 22 ft 1 kts 216°
2026-04-26 03:45 -42.83612 147.50660 22 ft 4 kts 182°
2026-04-26 03:46 -42.83643 147.50668 21 ft 4 kts 186°
2026-04-26 03:46 -42.83667 147.50646 23 ft 4 kts 224°
2026-04-26 03:46 -42.83683 147.50625 21 ft 2 kts 225°
2026-04-26 03:47 -42.83684 147.50622 21 ft 0 kts 225°